[[{"header":{"parameterUnit":"m.s-1","parameterCategory":1,"la1":30.2991,"la2":30.254,"lo1":-89.0895,"lo2":-89.0444,"dy":0.0017,"dx":0.0017,"nx":28,"ny":28,"refTime":"2025-01-06T09:00:00:Z","depth":0,"parameterNumber":2,"parameterNumberName":"U-component_of_WINDS"},"data":[0,0,0,0,0,0,0,0,0,0,0,0,0,0,0,0,0,0,0,0,0,0,0,0,0,0,0,0,0,0,0,0,0,0,0,0,0,0,0,0,0,0,0,0,0,0,0,0,0,0,0,0,0,0,0,0,0,0,-1.4704,-1.4705,0,-1.481,-1.4811,-1.4812,-1.4774,-1.4771,-1.4769,-1.4767,-1.4879,-1.4884,-1.4889,0,0,0,0,0,0,0,0,0,0,0,0,0,-1.4471,-1.4476,-1.4704,-1.4705,-1.4707,-1.481,-1.4811,-1.4812,-1.4774,-1.4771,-1.4768,-1.4766,-1.4877,-1.4883,-1.4889,0,0,0,0,0,0,0,0,0,0,0,0,0,-1.4574,-1.4477,-1.4704,-1.47,-1.47,-1.4809,-1.4811,-1.4813,-1.4775,-1.4771,-1.4768,-1.4764,-1.4875,-1.4882,-1.489,-1.501,0,0,-1.4914,-1.4917,0,0,0,0,0,0,0,0,-1.4569,-1.4583,-1.4699,-1.47,-1.4701,-1.4775,-1.477,-1.4879,-1.4776,-1.4747,-1.4767,-1.4762,-1.4847,-1.4857,-1.4885,-1.5015,-1.502,-1.4915,-1.4919,-1.4923,-1.4925,0,0,0,0,0,0,0,-1.4562,-1.4578,-1.4746,-1.4701,-1.4702,-1.4694,-1.4704,-1.479,-1.4816,-1.4749,-1.4746,-1.4759,-1.4847,-1.4877,-1.4887,-1.5022,-1.4914,-1.4921,-1.4926,-1.4929,-1.5256,-1.5259,0,0,0,0,0,0,-1.4554,-1.4573,-1.4743,-1.4749,-1.4625,-1.4701,-1.4713,-1.4755,-1.4815,-1.482,-1.4762,-1.4757,-1.4866,-1.4878,-1.4891,-1.5036,-1.4923,-1.493,-1.4935,-1.5252,-1.5256,-1.5261,0,0,0,0,0,0,-1.4549,-1.4569,-1.4738,-1.466,-1.4681,-1.4708,-1.4756,-1.4759,-1.4789,-1.4825,-1.4829,-1.4788,-1.4863,-1.488,-1.498,-1.5039,-1.4934,-1.4941,-1.5247,-1.5253,-1.5259,-1.5326,0,0,0,0,0,0,-1.4542,-1.4568,-1.4613,-1.4661,-1.4685,-1.4826,-1.476,-1.4764,-1.4802,-1.4797,-1.4851,-1.4856,-1.4862,-1.4969,-1.4988,-1.5048,-1.4947,-1.5242,-1.525,-1.5257,-1.5319,-1.5334,-1.5346,0,0,0,0,0,-1.4534,-1.4629,-1.4616,-1.4636,-1.4743,-1.4829,-1.4843,-1.4847,-1.4807,-1.4854,-1.4876,-1.4854,-1.5029,-1.498,-1.5001,-1.5064,-1.5238,-1.5247,-1.5256,-1.5313,-1.5331,-1.5346,0,0,0,0,0,0,-1.4589,-1.4635,-1.4621,-1.4734,-1.4778,-1.4822,-1.4881,-1.4866,-1.4923,-1.4915,-1.4918,-1.4931,-1.5034,-1.5059,-1.5003,-1.5183,-1.5128,-1.5141,-1.5163,-1.5181,-1.5194,-1.5187,-1.4953,0,0,0,0,0,-1.4613,-1.4678,-1.4716,-1.4812,-1.4835,-1.4854,-1.4892,-1.4891,-1.4937,-1.4955,-1.4985,-1.5032,-1.5097,-1.514,-1.5202,-1.5321,-1.5333,-1.5375,-1.5388,-1.54,-1.5412,-1.5477,-1.5496,-1.529,-1.529,-1.529,0,0,-1.4666,-1.4699,-1.4741,-1.4824,-1.4858,-1.4926,-1.487,-1.4945,-1.4996,-1.4967,-1.5064,-1.5087,-1.5139,-1.5249,-1.5299,-1.5273,-1.5471,-1.5411,-1.542,-1.5426,-1.5488,-1.5508,-1.5525,-1.5296,-1.5295,-1.5294,0,0,-1.4797,-1.4829,-1.4912,-1.4946,-1.4997,-1.5009,-1.5029,-1.5076,-1.509,-1.5187,-1.5166,-1.5227,-1.5339,-1.5377,-1.541,-1.5553,-1.5536,-1.5573,-1.5646,-1.571,-1.5726,-1.574,-1.5792,-1.5811,-1.5585,-1.5585,-1.5586,0,-1.4857,-1.4958,-1.4957,-1.5034,-1.5071,-1.5046,-1.5131,-1.5164,-1.5234,-1.526,-1.5229,-1.5368,-1.5401,-1.552,-1.5555,-1.5583,-1.5606,-1.5569,-1.5723,-1.5738,-1.5751,-1.5801,-1.582,-1.559,-1.5589,-1.5589,-1.5588,0,-1.5029,-1.51,-1.5161,-1.5227,-1.5271,-1.5351,-1.5363,-1.5408,-1.5402,-1.5418,-1.5516,-1.5554,-1.5623,-1.5651,-1.5647,-1.5769,-1.5751,-1.5722,-1.5667,-1.5775,-1.5822,-1.5841,-1.5596,-1.5594,-1.5593,-1.5592,0,0,-1.5201,-1.5263,-1.5286,-1.5315,-1.5368,-1.5423,-1.5502,-1.5568,-1.5607,-1.5655,-1.5721,-1.5816,-1.5788,-1.5827,-1.5826,-1.5881,-1.5993,-1.5845,-1.5846,-1.5872,-1.6131,-1.6154,-1.6175,-1.598,-1.5984,-1.5987,-1.6126,0,-1.5337,-1.5475,-1.5475,-1.5603,-1.5668,-1.5643,-1.5712,-1.5753,-1.5769,-1.5827,-1.5844,-1.5912,-1.587,-1.5893,-1.5946,-1.5968,-1.6045,-1.5958,-1.6044,-1.6047,-1.6033,-1.62,-1.6225,-1.6355,-1.6145,-1.6148,-1.615,0,-1.5515,-1.5567,-1.5701,-1.5743,-1.5771,-1.5833,-1.5893,-1.5948,-1.5993,-1.6001,-1.6043,-1.6033,-1.6114,-1.6055,-1.6166,-1.6107,-1.6142,-1.6158,-1.6163,-1.6172,-1.6106,-1.6215,-1.6396,-1.6417,-1.6178,-1.6176,-1.6174,0,-1.5628,-1.5731,-1.5824,-1.585,-1.5902,-1.5946,-1.597,-1.6011,-1.6051,-1.6103,-1.6129,-1.619,-1.6224,-1.6272,-1.628,-1.6236,-1.6392,-1.6334,-1.6402,-1.6402,-1.6438,-1.6436,-1.6629,-1.6458,-1.6457,-1.6457,-1.6457,0,-1.5781,-1.5864,-1.5876,-1.5933,-1.6025,-1.6025,-1.6116,-1.6136,-1.6173,-1.6234,-1.6217,-1.6275,-1.628,-1.634,-1.6346,-1.6438,-1.6454,-1.6463,-1.6464,-1.6465,-1.6464,-1.649,-1.6481,-1.6462,-1.6461,-1.646,-1.6459,0,-1.5924,-1.5935,-1.6035,-1.6075,-1.6087,-1.6153,-1.6188,-1.6243,-1.6255,-1.6333,-1.6352,-1.6373,-1.6442,-1.6454,-1.6536,-1.654,-1.665,-1.6641,-1.6635,-1.6634,-1.6702,-1.6696,-1.6919,-1.6949,-1.6757,-1.6759,-1.676,0,-1.6022,-1.6085,-1.6131,-1.617,-1.6196,-1.626,-1.6299,-1.63,-1.6342,-1.6397,-1.6446,-1.6513,-1.6567,-1.6679,-1.6703,-1.6765,-1.6758,-1.6832,-1.6768,-1.6767,-1.6761,-1.6758,-1.6764,-1.6845,-1.6847,-1.6849,-1.685,0,-1.6196,-1.6197,-1.6254,-1.6313,-1.636,-1.6407,-1.6451,-1.6484,-1.6491,-1.6539,-1.6609,-1.6651,-1.6733,-1.68,-1.6862,-1.6887,-1.6871,-1.687,-1.6889,-1.6893,-1.6887,-1.6892,-1.667,-1.6866,-1.6864,-1.6863,-1.6862,-1.6861,-1.632,-1.6374,-1.6415,-1.6479,-1.6511,-1.6553,-1.6606,-1.6625,-1.6683,-1.675,-1.6747,-1.6824,-1.6866,-1.6947,-1.6976,-1.7036,-1.7013,-1.7041,-1.7048,-1.7055,-1.7062,-1.6875,-1.7048,-1.7047,-1.7047,-1.7046,-1.7046,0,-1.6493,-1.6517,-1.6576,-1.6637,-1.6687,-1.6665,-1.6712,-1.6756,-1.6823,-1.6863,-1.6916,-1.6996,-1.7061,-1.7088,-1.7151,-1.7195,-1.7189,-1.7212,-1.7209,-1.7215,-1.7079,-1.7057,-1.7215,-1.7215,-1.7215,-1.7215,-1.7215,-1.7215,-1.6589,-1.668,-1.6687,-1.6794,-1.6817,-1.6892,-1.6921,-1.6958,-1.699,-1.708,-1.7133,-1.715,-1.7185,-1.725,-1.7309,-1.7315,-1.734,-1.7366,-1.7369,-1.7242,-1.7225,-1.7209,-1.7188,-1.7371,-1.7371,-1.75,-1.7502,-1.7503]},{"header":{"parameterUnit":"m.s-1","parameterCategory":1,"la1":30.2991,"la2":30.254,"lo1":-89.0895,"lo2":-89.0444,"dy":0.0017,"dx":0.0017,"nx":28,"ny":28,"refTime":"2025-01-06T09:00:00:Z","depth":0,"parameterNumber":3,"parameterNumberName":"V-component_of_WINDS"},"data":[0,0,0,0,0,0,0,0,0,0,0,0,0,0,0,0,0,0,0,0,0,0,0,0,0,0,0,0,0,0,0,0,0,0,0,0,0,0,0,0,0,0,0,0,0,0,0,0,0,0,0,0,0,0,0,0,0,0,-6.3524,-6.3525,0,-6.3643,-6.3645,-6.3646,-6.3544,-6.354,-6.3536,-6.3532,-6.3651,-6.3658,-6.3665,0,0,0,0,0,0,0,0,0,0,0,0,0,-6.3203,-6.3209,-6.3524,-6.3525,-6.3527,-6.3643,-6.3645,-6.3646,-6.3545,-6.354,-6.3535,-6.353,-6.3648,-6.3657,-6.3665,0,0,0,0,0,0,0,0,0,0,0,0,0,-6.3334,-6.3211,-6.3523,-6.349,-6.3488,-6.3643,-6.3645,-6.3647,-6.3546,-6.354,-6.3533,-6.3527,-6.3645,-6.3656,-6.3666,-6.3859,0,0,-6.3699,-6.3704,0,0,0,0,0,0,0,0,-6.3327,-6.3346,-6.3493,-6.3493,-6.3491,-6.3572,-6.3575,-6.3718,-6.3547,-6.3524,-6.3532,-6.3524,-6.3629,-6.3641,-6.3677,-6.3864,-6.387,-6.37,-6.3706,-6.3711,-6.3714,0,0,0,0,0,0,0,-6.3318,-6.334,-6.3571,-6.3496,-6.3494,-6.3468,-6.3479,-6.3602,-6.3611,-6.3526,-6.3518,-6.3534,-6.3627,-6.3667,-6.3679,-6.3871,-6.37,-6.3709,-6.3716,-6.372,-6.422,-6.4227,0,0,0,0,0,0,-6.3313,-6.3333,-6.3567,-6.3574,-6.3392,-6.3479,-6.3492,-6.3553,-6.3609,-6.3612,-6.3539,-6.3529,-6.3652,-6.3667,-6.3683,-6.3911,-6.3711,-6.3721,-6.3727,-6.4213,-6.4222,-6.4229,0,0,0,0,0,0,-6.3306,-6.3335,-6.3562,-6.3452,-6.3479,-6.3491,-6.356,-6.3558,-6.3598,-6.362,-6.362,-6.3579,-6.3648,-6.3668,-6.3816,-6.3914,-6.3726,-6.3735,-6.4205,-6.4216,-6.4225,-6.437,0,0,0,0,0,0,-6.3297,-6.3333,-6.3407,-6.3455,-6.3485,-6.3695,-6.3566,-6.3565,-6.3617,-6.3604,-6.3657,-6.3659,-6.3644,-6.38,-6.3826,-6.3925,-6.3744,-6.4196,-6.421,-6.4222,-6.4356,-6.4384,-6.4407,0,0,0,0,0,-6.3286,-6.3443,-6.3412,-6.344,-6.3579,-6.3701,-6.3718,-6.3699,-6.3625,-6.37,-6.3713,-6.3658,-6.3899,-6.3816,-6.3845,-6.3948,-6.419,-6.4206,-6.4221,-6.4345,-6.4378,-6.4407,0,0,0,0,0,0,-6.3406,-6.3448,-6.3414,-6.3591,-6.3643,-6.3683,-6.3776,-6.3735,-6.3808,-6.3794,-6.3765,-6.3778,-6.3933,-6.3955,-6.3863,-6.4136,-6.4032,-6.4054,-6.4117,-6.4149,-6.4174,-6.4165,-6.3752,0,0,0,0,0,-6.3453,-6.355,-6.3581,-6.3734,-6.3762,-6.3765,-6.3817,-6.3798,-6.385,-6.3871,-6.3896,-6.3948,-6.4035,-6.4093,-6.4174,-6.4359,-6.4368,-6.4444,-6.4469,-6.449,-6.4509,-6.4607,-6.464,-6.428,-6.428,-6.428,0,0,-6.3551,-6.3586,-6.3649,-6.3759,-6.3797,-6.3896,-6.3784,-6.3894,-6.3967,-6.3888,-6.4029,-6.4049,-6.4104,-6.4271,-6.4345,-6.4294,-6.461,-6.451,-6.4526,-6.4534,-6.4626,-6.466,-6.469,-6.4291,-6.4289,-6.4287,0,0,-6.3781,-6.3818,-6.3948,-6.3989,-6.4048,-6.4049,-6.408,-6.4127,-6.4137,-6.4278,-6.4221,-6.4306,-6.4457,-6.4499,-6.454,-6.4784,-6.4735,-6.4811,-6.4944,-6.5039,-6.5068,-6.5093,-6.5179,-6.521,-6.483,-6.483,-6.483,0,-6.3895,-6.4044,-6.4021,-6.4135,-6.4184,-6.4118,-6.4249,-6.4289,-6.4371,-6.4406,-6.4347,-6.4535,-6.4568,-6.4743,-6.4802,-6.4838,-6.4871,-6.4805,-6.5066,-6.5091,-6.5114,-6.5195,-6.5228,-6.4839,-6.4838,-6.4837,-6.4836,0,-6.418,-6.4284,-6.4382,-6.4465,-6.4525,-6.4647,-6.4641,-6.4705,-6.468,-6.4686,-6.483,-6.4867,-6.4954,-6.4994,-6.497,-6.5165,-6.5131,-6.507,-6.4965,-6.5157,-6.5233,-6.5265,-6.4852,-6.4848,-6.4846,-6.4844,0,0,-6.449,-6.4557,-6.4594,-6.4629,-6.4689,-6.4768,-6.4886,-6.4973,-6.5027,-6.5086,-6.5183,-6.5312,-6.5256,-6.5302,-6.5282,-6.5366,-6.5556,-6.5294,-6.5295,-6.5341,-6.5771,-6.5817,-6.5853,-6.5523,-6.5529,-6.5534,-6.5766,0,-6.4721,-6.4928,-6.491,-6.5106,-6.5201,-6.5138,-6.5241,-6.5288,-6.5296,-6.5377,-6.5385,-6.5477,-6.5396,-6.5423,-6.5503,-6.5516,-6.5641,-6.5499,-6.5612,-6.5617,-6.5601,-6.5893,-6.5942,-6.616,-6.5796,-6.5801,-6.5804,0,-6.5019,-6.5089,-6.5295,-6.5339,-6.5378,-6.5471,-6.5548,-6.5626,-6.5677,-6.5677,-6.5729,-6.5694,-6.5811,-6.5704,-6.5864,-6.5767,-6.5812,-6.5825,-6.5833,-6.5842,-6.5722,-6.5911,-6.6229,-6.6261,-6.5851,-6.5848,-6.5844,0,-6.5223,-6.5369,-6.551,-6.5543,-6.5598,-6.5665,-6.5691,-6.5735,-6.5788,-6.5854,-6.5888,-6.5967,-6.601,-6.6071,-6.6058,-6.5981,-6.6221,-6.6113,-6.6224,-6.6224,-6.6277,-6.6274,-6.6607,-6.6307,-6.6307,-6.6306,-6.6305,0,-6.5483,-6.5612,-6.5602,-6.569,-6.583,-6.5807,-6.5947,-6.5964,-6.6005,-6.6092,-6.6042,-6.6126,-6.6103,-6.6185,-6.6176,-6.6309,-6.6329,-6.6331,-6.6327,-6.6336,-6.6336,-6.6365,-6.6349,-6.6315,-6.6313,-6.6311,-6.6309,0,-6.5736,-6.5735,-6.5885,-6.5925,-6.5938,-6.604,-6.6073,-6.6154,-6.6158,-6.627,-6.6295,-6.6301,-6.6395,-6.6388,-6.6493,-6.6486,-6.6651,-6.6629,-6.6634,-6.663,-6.674,-6.673,-6.7104,-6.7151,-6.6821,-6.6824,-6.6827,0,-6.5902,-6.5999,-6.6049,-6.6105,-6.6136,-6.6226,-6.628,-6.626,-6.6317,-6.6382,-6.6455,-6.6544,-6.6615,-6.6767,-6.678,-6.686,-6.6839,-6.6964,-6.6851,-6.6856,-6.684,-6.6834,-6.6843,-6.6987,-6.6991,-6.6994,-6.6996,0,-6.6197,-6.6191,-6.6271,-6.6351,-6.6416,-6.6477,-6.6533,-6.6581,-6.6567,-6.6634,-6.6729,-6.6784,-6.6891,-6.698,-6.7056,-6.708,-6.7036,-6.7032,-6.7061,-6.7071,-6.707,-6.7072,-6.6695,-6.7023,-6.7021,-6.7019,-6.7017,-6.7016,-6.641,-6.6493,-6.6542,-6.6631,-6.6671,-6.6725,-6.6803,-6.6817,-6.6896,-6.6983,-6.6966,-6.7073,-6.712,-6.7217,-6.7249,-6.7331,-6.7286,-6.7329,-6.734,-6.7351,-6.7363,-6.7057,-6.7345,-6.7344,-6.7343,-6.7342,-6.7342,0,-6.6702,-6.673,-6.6813,-6.6893,-6.6963,-6.6916,-6.6975,-6.7036,-6.7132,-6.7179,-6.725,-6.7359,-6.7444,-6.7464,-6.7545,-6.7607,-6.7589,-6.7629,-6.7624,-6.763,-6.74,-6.7366,-6.7642,-6.7642,-6.7642,-6.7642,-6.7642,-6.7642,-6.6862,-6.6999,-6.6999,-6.7155,-6.7181,-6.7287,-6.7325,-6.7373,-6.741,-6.7535,-6.7606,-6.7618,-6.7654,-6.7738,-6.7813,-6.7816,-6.7848,-6.7897,-6.7892,-6.7676,-6.7646,-6.7618,-6.7586,-6.7904,-6.7904,-6.8115,-6.8117,-6.8119]}]]